GFSFLT2_con_lsi_000.txt.gz
Lid_Strength_Index
13 12 12 11 9 8 7 7 6 4 4 4 4 4 3 3 3 3 3 2 2 2 2 1 1 1 1
13 11 10 8 7 8 7 7 8 6 5 4 4 4 4 4 4 3 3 3 3 3 2 2 1 1 1
11 9 9 8 9 9 10 10 9 6 5 5 5 5 4 3 3 4 4 4 3 3 3 3 2 2 1
10 10 8 9 10 12 12 10 10 8 7 6 5 5 5 5 5 5 5 4 3 3 3 3 3 2 2
10 10 11 12 12 12 12 11 10 9 10 9 9 9 8 7 6 6 5 4 3 3 3 3 3 2 2
10 11 12 12 12 12 12 12 15 10 11 11 10 10 9 9 6 5 4 4 3 3 3 3 3 3 3
11 11 12 11 10 12 13 14 14 12 12 13 11 12 10 8 6 6 5 5 4 4 3 3 3 3 3
9 9 9 10 11 12 12 13 12 12 12 14 12 13 11 10 7 6 5 5 5 4 3 3 3 2 3
6 7 8 9 10 12 14 15 16 15 13 14 13 13 11 11 9 7 6 6 6 5 4 4 3 3 4
12 12 11 11 10 12 14 16 16 17 14 15 14 13 13 10 10 10 9 7 7 6 5 4 4 5 6
13 13 13 12 13 13 13 14 16 16 13 13 13 14 13 13 11 11 10 9 10 9 7 6 5 5 7
14 14 14 14 13 13 13 13 13 14 13 12 14 13 13 14 14 12 12 12 11 10 10 8 6 4 4
14 14 14 14 13 13 13 13 13 13 12 12 13 13 13 14 14 14 14 12 11 10 9 9 8 8 8
14 14 13 14 14 14 15 14 14 14 13 12 12 12 13 14 14 15 14 14 11 10 9 8 8 8 8
15 15 14 15 15 14 15 15 16 15 15 13 12 11 12 15 15 13 13 12 10 9 9 9 8 8 7
15 16 16 15 16 15 15 15 15 15 14 14 13 13 14 13 11 14 11 11 10 10 9 10 10 9 8
15 15 15 16 16 16 16 15 15 14 14 14 14 14 16 16 13 10 11 10 11 11 10 10 11 10 8

GFSFLT2_con_lsi_003.txt.gz
Lid_Strength_Index
13 13 13 13 11 10 8 7 7 5 4 4 4 4 4 4 4 3 3 2 2 2 2 2 1 1 1
14 13 12 10 9 9 8 8 9 7 5 5 5 4 4 4 4 4 4 3 3 2 2 2 1 1 1
13 11 10 9 9 9 9 9 9 7 6 6 5 5 4 4 4 4 4 4 4 3 3 2 2 1 1
11 10 10 8 9 10 11 10 10 9 8 6 6 6 6 6 6 6 6 5 4 4 4 3 3 2 2
11 10 11 11 11 11 11 11 10 9 11 11 11 10 10 8 8 7 6 5 5 4 3 3 3 3 2
11 12 12 12 11 11 11 13 15 10 12 13 12 12 11 10 8 7 6 5 5 4 4 3 3 2 2
12 12 13 11 11 12 12 13 13 12 13 14 13 13 12 10 8 7 6 5 5 5 4 4 3 3 3
11 11 10 11 11 12 13 13 12 13 13 16 14 14 12 11 8 7 6 6 5 5 5 4 4 3 3
8 9 9 9 10 12 14 15 16 15 14 15 14 14 13 12 11 7 6 6 6 6 5 5 4 4 4
13 12 11 11 10 12 13 16 16 16 14 15 15 14 14 12 12 11 10 7 7 6 6 5 5 6 6
14 13 13 12 12 12 13 14 16 16 14 14 15 15 15 14 12 11 11 11 11 10 8 7 6 5 7
14 14 14 14 13 13 13 13 13 14 13 13 15 15 14 14 15 12 12 11 11 12 11 9 6 5 4
15 15 15 14 14 13 13 13 13 13 12 12 12 12 12 13 14 13 13 12 12 12 10 10 9 8 9
15 15 14 15 15 14 15 15 15 14 12 11 10 11 13 12 13 14 13 14 12 11 10 8 8 7 8
15 15 15 15 15 15 15 15 16 15 14 12 11 11 11 12 14 12 12 12 10 9 8 8 9 8 7
15 16 16 15 16 15 15 16 16 15 14 13 13 13 13 12 11 13 12 10 9 9 9 9 9 9 8
15 15 14 15 15 16 16 16 16 14 14 13 13 14 15 15 12 9 12 10 10 10 10 10 10 9 8

GFSFLT2_con_lsi_006.txt.gz
Lid_Strength_Index
14 13 14 14 13 12 10 10 8 5 5 4 4 4 4 4 3 3 3 3 2 2 2 1 1 1 1
15 14 14 12 11 11 9 8 8 7 5 5 4 4 4 4 4 4 4 4 4 3 3 2 1 1 1
15 13 12 10 11 10 10 9 9 7 6 5 5 5 4 4 5 5 5 5 5 5 4 4 3 2 2
13 12 11 10 11 12 13 11 10 9 7 7 6 6 6 6 6 7 7 7 6 6 5 5 4 4 3
12 12 12 13 14 13 13 12 11 11 12 11 11 11 11 9 9 8 8 7 6 6 5 5 4 4 3
13 13 14 14 13 13 13 14 15 11 13 12 12 12 12 12 10 8 7 6 6 6 5 4 4 4 3
14 14 14 13 12 13 14 14 14 13 13 14 13 14 12 12 9 9 8 6 6 5 5 4 4 4 4
12 12 11 12 12 12 13 13 13 13 13 16 14 15 13 12 9 8 7 6 6 5 5 5 4 4 3
9 9 10 9 10 12 14 15 16 15 14 15 15 15 14 14 12 9 7 6 6 6 5 5 5 5 5
14 13 12 12 10 13 14 16 17 17 14 15 15 14 15 13 13 12 11 8 7 6 6 6 5 7 7
15 14 13 14 14 14 14 15 16 16 14 13 14 14 14 14 12 11 11 11 10 10 8 7 6 6 8
15 15 15 16 15 14 14 14 13 14 13 12 13 13 14 14 14 11 10 10 10 11 10 9 7 6 5
15 16 16 15 15 15 14 14 14 13 12 12 12 12 12 13 13 13 12 11 11 11 11 10 11 10 10
15 15 14 15 15 14 15 15 15 15 12 11 11 11 13 13 13 13 12 14 12 11 10 9 9 7 7
15 15 15 15 15 14 15 15 17 16 15 12 11 11 12 12 14 12 12 12 10 9 9 9 8 7 7
15 15 15 15 15 14 14 15 16 16 15 13 13 13 13 12 10 12 11 11 10 9 9 10 10 8 8
15 15 14 15 15 15 15 15 16 15 14 14 13 14 15 16 12 9 11 11 10 10 10 10 10 9 7

GFSFLT2_con_lsi_009.txt.gz
Lid_Strength_Index
12 11 12 12 11 10 10 9 8 6 6 5 6 6 5 5 4 4 4 3 2 1 0 0 0 1 1
13 12 12 11 10 9 9 8 8 7 7 6 6 6 6 5 5 4 4 3 3 2 1 1 1 1 1
14 12 11 9 9 9 9 9 9 8 7 7 7 6 6 6 6 6 5 5 4 4 3 3 2 2 2
13 12 11 10 9 11 12 10 10 10 9 8 8 8 8 7 7 8 7 7 6 6 5 5 5 4 4
12 11 11 11 12 11 12 11 10 10 10 10 10 9 9 9 9 9 9 8 7 7 6 6 5 5 4
12 12 12 12 11 12 12 13 13 10 12 11 10 10 10 10 10 9 8 7 7 7 6 5 5 5 4
12 12 13 12 11 12 12 12 13 11 12 13 11 12 10 11 10 9 8 7 7 6 5 5 4 4 4
10 10 10 10 11 11 12 12 11 11 12 14 12 12 11 10 9 8 8 7 6 5 5 5 5 4 4
9 9 10 10 10 12 13 14 15 14 12 13 13 12 11 10 9 8 8 7 6 6 5 5 5 5 5
12 12 12 12 11 12 13 15 16 16 13 14 13 12 13 10 9 9 9 8 7 6 6 5 5 6 6
13 13 12 12 12 12 12 14 15 15 13 13 12 12 12 12 10 9 9 9 8 8 7 7 6 6 7
14 13 13 13 12 12 12 12 13 14 13 12 13 12 13 13 13 10 9 9 8 9 8 8 7 6 6
13 13 13 12 12 12 12 11 12 12 12 12 11 11 12 13 12 11 11 10 9 10 9 8 8 8 9
14 13 13 12 12 12 13 12 13 13 12 11 10 10 12 11 11 11 10 12 10 9 9 8 8 7 8
13 13 14 13 13 12 12 13 14 14 14 12 10 10 10 11 12 10 10 10 9 9 9 9 7 7 6
13 13 13 13 13 12 12 13 14 14 14 12 11 12 11 9 8 10 10 10 9 9 8 9 9 7 6
13 14 13 13 13 14 13 13 13 13 13 12 12 12 14 14 10 9 11 10 10 9 9 9 9 8 7

GFSFLT2_con_lsi_012.txt.gz
Lid_Strength_Index
12 11 11 11 10 10 10 10 8 7 6 6 6 6 6 5 5 5 4 4 4 3 3 2 2 2 1
12 12 12 10 10 11 10 9 8 7 6 6 6 6 6 6 6 5 5 5 5 4 4 4 2 2 1
13 11 11 10 10 9 9 8 8 7 7 7 7 7 6 7 7 6 6 6 6 6 6 5 4 4 2
12 11 11 10 9 10 10 9 9 9 8 8 7 7 7 7 8 8 8 7 7 6 6 6 6 5 4
12 12 11 10 11 9 10 10 9 9 9 9 9 9 9 8 8 8 8 8 8 7 7 6 6 5 5
11 11 11 10 10 10 11 12 13 9 11 10 9 10 9 9 8 8 7 7 7 7 7 6 6 5 5
11 11 11 10 10 10 11 12 12 10 11 12 10 10 9 9 7 7 7 6 6 7 7 6 6 5 4
9 9 9 9 10 11 11 11 10 10 11 13 11 11 10 8 7 7 6 6 6 6 6 5 5 4 4
8 8 8 9 9 11 12 13 13 12 11 12 12 12 11 9 8 7 6 6 6 5 5 5 5 4 5
10 10 10 10 9 10 11 13 13 13 11 13 13 13 12 9 8 8 8 7 6 6 6 5 5 7 6
11 11 10 10 9 9 10 11 13 13 11 11 13 12 12 12 10 9 8 8 7 7 6 6 6 6 8
11 11 10 10 10 10 10 10 10 11 10 11 13 12 12 12 13 9 8 8 8 8 8 7 6 6 5
12 11 10 9 10 10 9 9 9 10 10 10 11 11 11 12 12 11 10 9 8 8 8 8 8 7 8
11 11 10 10 10 9 10 10 11 10 9 9 10 10 11 11 11 12 10 11 8 8 8 8 7 6 7
12 12 11 11 10 10 10 10 12 11 10 9 10 9 9 10 12 10 9 9 8 9 9 8 7 6 7
12 11 12 12 11 10 10 11 11 11 11 10 10 11 10 9 8 9 9 9 9 8 8 9 8 7 6
12 12 12 11 12 12 11 11 11 11 10 9 11 11 12 13 10 8 10 10 9 9 8 8 9 8 7

GFSFLT2_con_lsi_015.txt.gz
Lid_Strength_Index
12 11 11 11 11 10 10 11 10 8 8 7 7 6 6 5 5 5 5 4 4 3 3 3 3 3 2
13 12 12 11 11 11 11 10 10 8 6 6 5 5 6 6 6 6 5 5 5 5 4 4 4 4 3
14 12 12 11 11 11 11 10 9 7 6 6 6 6 6 6 6 6 6 6 6 6 6 5 5 5 5
14 13 12 11 11 12 12 10 9 8 7 7 7 7 6 6 7 7 7 7 7 7 7 6 6 6 5
14 13 13 13 12 11 11 10 10 9 10 10 10 10 10 8 8 7 7 7 7 6 6 6 6 5 5
13 13 13 11 11 11 11 12 13 9 11 11 10 11 10 10 8 7 7 6 6 6 5 5 5 5 5
12 12 12 11 11 12 11 12 13 11 12 13 11 12 10 10 8 7 7 6 5 5 5 4 4 4 4
10 10 10 10 10 10 11 12 11 11 11 14 11 12 10 10 8 7 6 6 6 5 5 5 4 4 4
8 8 8 8 8 10 12 13 13 12 11 13 12 12 11 12 11 7 6 6 6 6 6 5 5 4 5
10 10 9 9 8 10 11 13 13 14 11 13 12 13 14 12 11 10 10 8 7 6 6 5 5 6 7
11 11 10 10 9 9 9 10 12 13 11 11 12 13 13 14 12 11 11 10 9 8 6 6 5 6 7
11 11 11 11 10 9 9 9 9 11 10 10 12 12 13 15 14 11 11 10 10 9 9 7 6 5 5
12 11 11 10 10 10 9 8 9 9 9 9 10 11 11 14 13 12 12 10 10 10 8 8 8 7 8
12 11 11 11 11 11 11 11 11 11 9 9 9 10 11 12 12 12 11 12 10 9 8 8 7 7 7
11 12 12 12 12 11 11 11 12 12 11 10 9 9 10 11 12 12 11 11 9 9 9 9 8 7 7
12 12 12 12 12 11 11 12 12 12 11 10 10 10 11 11 9 11 11 11 10 10 9 10 9 8 7
12 12 12 12 12 12 12 12 12 12 11 10 10 12 14 15 12 8 11 11 11 10 9 9 9 9 8

GFSFLT2_con_lsi_018.txt.gz
Lid_Strength_Index
14 14 14 14 12 12 11 12 11 9 9 8 8 7 6 6 5 4 4 3 3 3 3 3 2 2 2
14 14 14 14 13 13 11 11 12 10 8 7 6 6 5 5 5 5 5 4 4 4 4 4 3 3 3
15 14 14 13 13 12 13 13 11 9 7 6 5 5 5 5 5 5 5 5 5 5 5 5 5 4 4
15 15 14 13 13 15 14 13 12 9 8 7 6 7 6 6 6 7 7 6 6 6 6 6 6 5 5
14 14 14 15 15 13 14 12 12 11 11 11 11 10 10 8 8 8 7 7 6 6 6 5 5 5 4
14 16 15 14 14 13 13 14 15 10 13 12 11 12 11 11 8 7 7 7 7 6 6 5 4 4 4
15 14 14 13 13 14 13 12 12 11 12 13 11 12 11 10 9 8 7 7 7 6 5 5 4 4 4
12 12 12 10 10 10 11 12 11 11 11 14 11 12 11 11 8 8 7 7 7 6 5 5 5 5 5
9 8 7 7 8 10 12 13 13 11 10 12 12 13 12 11 11 8 7 7 8 6 6 5 5 5 5
11 10 10 10 8 10 11 13 13 13 11 12 12 12 14 11 12 11 11 9 8 7 7 6 6 7 7
12 12 11 11 11 10 10 11 12 12 10 10 11 12 13 13 11 11 11 12 11 10 8 7 6 6 8
13 13 12 12 11 11 10 11 10 11 10 9 11 11 12 13 13 11 11 12 11 11 10 8 7 6 5
13 13 12 12 12 12 11 11 11 10 9 10 10 11 11 12 13 12 12 12 10 11 11 10 9 8 9
13 13 12 12 12 12 12 12 12 12 10 10 10 10 11 11 11 13 12 13 10 10 10 9 8 8 8
13 13 12 12 12 11 11 11 12 13 13 11 10 10 10 11 13 13 12 11 10 10 11 11 9 9 8
13 13 13 13 12 11 11 12 13 13 13 12 12 12 11 12 10 12 11 12 11 10 10 11 11 9 8
13 13 13 12 11 12 12 12 12 13 13 12 12 12 14 15 12 8 12 11 11 12 11 10 10 9 9

GFSFLT2_con_lsi_021.txt.gz
Lid_Strength_Index
16 15 16 15 14 13 12 12 12 9 9 9 8 8 8 8 7 6 5 4 3 3 2 1 1 1 2
16 15 15 15 14 14 13 11 12 10 9 9 9 8 7 6 5 5 5 4 4 3 3 3 3 3 3
16 14 14 14 14 13 13 13 13 11 9 8 7 7 6 6 6 6 6 5 5 5 5 5 4 4 3
16 15 15 14 14 15 15 15 14 11 10 8 7 7 7 7 7 7 7 7 6 6 5 5 5 4 4
16 15 15 16 16 15 16 14 12 11 12 12 11 11 11 9 9 8 8 7 6 6 6 5 5 5 4
15 16 16 16 17 15 14 14 14 10 13 11 10 11 10 10 8 7 7 7 7 6 6 6 6 5 4
15 16 16 15 14 14 12 12 12 10 11 13 10 11 10 9 7 7 7 7 7 7 6 6 6 5 4
14 14 13 11 10 10 11 12 11 11 11 14 11 11 10 9 7 7 7 7 7 6 6 6 6 6 5
10 8 8 8 9 11 13 14 14 12 10 13 12 12 11 10 9 7 7 7 7 7 7 6 7 6 6
12 11 11 11 9 11 13 14 14 14 12 13 12 11 13 11 10 10 10 9 8 7 7 7 7 8 8
13 13 12 12 12 11 11 12 13 13 11 11 12 12 12 13 11 10 10 10 11 11 8 8 7 7 9
14 13 13 13 12 12 11 11 11 11 11 11 12 12 13 13 13 11 10 10 11 11 11 9 7 7 7
14 14 13 13 12 12 11 11 11 10 9 10 11 12 12 13 13 12 11 10 11 11 12 11 10 10 10
14 13 12 13 12 12 12 11 12 11 9 10 11 11 12 12 12 12 11 12 11 11 11 10 9 9 9
14 14 13 12 12 12 12 12 12 12 12 11 10 11 11 12 14 13 13 13 12 11 11 11 10 10 9
14 14 14 14 13 12 11 12 13 13 13 12 12 12 12 12 11 13 12 12 12 11 11 12 11 9 8
15 15 15 14 13 14 13 13 13 13 13 13 13 13 15 16 12 9 11 11 11 11 11 11 11 10 9

GFSFLT2_con_lsi_024.txt.gz
Lid_Strength_Index
17 16 17 16 15 14 13 13 13 9 9 9 8 8 8 8 8 7 7 7 6 5 4 3 3 3 3
17 17 16 15 15 15 13 12 12 10 9 9 9 9 8 8 8 7 6 5 5 5 4 4 4 3 2
17 16 16 15 15 15 14 13 12 11 10 10 9 9 8 7 6 6 6 6 6 6 5 5 4 4 3
16 17 17 15 15 15 16 15 15 13 12 11 8 7 7 6 6 6 7 7 6 6 5 5 5 4 4
16 17 15 15 16 15 16 15 15 13 12 12 11 11 10 8 8 7 7 6 6 5 5 5 5 5 4
19 15 16 16 15 16 16 16 15 11 13 12 10 11 10 10 7 6 6 6 6 6 5 5 6 6 5
15 15 16 15 15 16 14 12 13 11 12 13 11 12 10 9 7 6 6 5 5 5 5 5 5 5 5
14 14 14 13 11 11 12 13 12 12 11 15 12 12 11 10 7 6 6 5 5 5 5 5 6 6 6
11 10 9 8 9 11 14 14 15 14 11 13 13 12 11 11 10 6 6 5 5 5 5 5 6 6 7
14 12 11 12 9 12 14 15 15 15 12 14 12 12 13 11 10 10 10 7 6 6 6 6 6 8 9
14 13 13 13 12 12 12 13 13 13 10 10 11 12 12 13 11 10 10 10 10 9 7 7 7 7 9
14 14 14 14 13 13 11 11 11 11 10 10 12 13 13 14 14 11 11 10 10 10 10 9 7 6 6
15 15 14 14 13 13 12 11 11 10 9 9 11 11 12 14 14 13 12 11 10 11 11 11 12 11 11
15 14 13 14 14 13 13 13 13 12 10 10 10 11 12 12 13 13 12 13 11 12 12 12 11 11 10
15 15 14 14 14 13 14 14 14 14 14 12 11 11 12 13 14 14 13 13 13 13 13 12 11 10 10
15 16 15 16 16 15 14 15 16 15 15 14 14 13 13 12 11 14 13 13 12 12 11 12 12 10 9
16 16 16 16 15 16 16 16 16 16 15 14 14 14 15 16 12 9 12 11 11 11 11 11 12 11 10

GFSFLT2_con_lsi_027.txt.gz
Lid_Strength_Index
18 17 17 16 15 15 14 15 14 10 9 9 8 8 8 8 8 7 7 7 6 6 5 5 5 5 4
19 17 17 16 16 16 14 12 13 11 9 9 9 8 8 8 8 8 7 7 7 6 6 5 4 4 3
18 17 17 16 16 15 15 14 13 11 10 10 9 9 8 8 8 7 7 6 5 5 5 5 4 4 3
18 18 17 16 16 16 16 15 15 13 12 11 9 9 8 7 6 6 6 6 6 5 5 5 4 4 4
17 18 17 16 16 15 16 15 15 14 14 13 12 11 11 8 8 7 7 6 6 5 5 4 4 4 4
21 17 16 16 16 16 16 16 16 12 13 12 11 12 11 10 8 6 6 5 5 5 5 5 4 4 4
16 16 16 15 15 16 15 15 13 12 12 14 12 12 11 10 7 6 5 5 5 5 5 5 4 4 4
15 14 14 14 13 13 12 13 13 12 13 15 12 13 11 10 7 6 5 5 4 4 4 4 4 4 4
10 10 10 10 9 12 15 15 16 14 12 14 13 12 11 10 9 6 5 4 4 4 5 5 5 4 5
15 15 13 13 10 12 15 17 15 15 13 15 12 11 13 11 10 10 9 6 5 5 5 5 5 7 7
16 14 14 13 13 13 13 16 15 15 12 12 13 13 13 13 11 10 10 10 10 9 7 7 6 6 8
15 15 15 15 14 14 13 13 13 14 13 13 14 15 14 14 14 12 11 11 11 11 10 8 7 6 5
15 15 15 15 15 14 14 14 14 14 13 13 14 14 14 15 15 14 13 11 11 12 12 11 11 11 12
15 15 14 15 15 15 16 15 15 15 13 13 13 14 15 14 14 15 14 15 13 13 12 12 12 11 11
16 16 15 15 15 15 16 16 16 16 16 14 13 13 13 14 15 14 14 14 13 13 13 13 12 12 12
17 17 17 16 16 15 15 17 17 17 16 15 15 15 14 12 11 14 13 13 13 12 12 13 12 11 10
17 17 17 16 15 16 17 16 16 16 16 16 15 15 17 17 12 9 12 11 11 11 11 11 12 11 10

GFSFLT2_con_lsi_030.txt.gz
Lid_Strength_Index
18 18 18 17 16 16 15 16 15 11 10 9 9 8 8 8 7 7 7 6 6 5 5 5 5 5 4
19 19 18 17 17 17 15 13 14 11 10 9 9 9 8 8 8 7 7 7 6 6 6 5 5 5 5
19 18 17 17 17 17 16 15 14 11 10 10 9 9 8 8 7 7 7 6 5 5 5 4 4 4 3
18 19 18 17 17 17 17 16 15 13 12 11 10 9 9 7 6 6 6 6 5 5 5 5 5 4 3
19 19 18 17 17 16 16 16 15 14 14 14 14 12 11 9 8 7 7 6 6 5 5 4 4 4 4
21 18 17 17 17 16 16 17 16 14 15 13 11 12 11 11 8 7 6 5 5 4 4 4 4 4 4
16 17 17 16 16 17 16 15 15 13 12 14 12 13 11 10 7 6 5 5 4 4 3 3 3 3 3
15 15 15 14 14 13 14 14 13 12 13 16 13 13 12 11 8 7 6 5 4 4 3 3 3 3 3
11 11 10 10 11 13 15 16 16 15 13 15 14 14 12 12 11 7 7 6 5 5 4 4 4 4 4
16 15 14 14 11 13 17 18 16 17 15 16 15 15 16 13 12 12 11 8 7 6 5 5 5 7 7
16 16 15 14 13 13 13 18 16 16 14 14 17 15 15 16 13 13 13 12 12 11 8 7 6 6 8
16 16 15 15 15 14 14 14 14 15 14 14 16 17 17 17 17 13 13 13 13 13 12 10 8 7 6
16 16 16 16 15 15 15 14 15 15 14 14 15 15 15 16 17 15 15 13 13 13 13 13 13 12 13
16 15 15 17 15 15 16 15 16 15 15 15 15 15 16 15 15 16 14 15 13 13 13 13 12 12 12
16 16 16 16 16 15 16 16 16 16 16 15 15 15 14 15 16 15 15 14 13 13 13 13 12 11 12
17 18 17 17 17 16 15 16 16 16 16 16 16 16 15 12 11 14 14 14 13 12 12 13 12 10 10
19 18 17 18 16 16 16 16 16 15 15 16 16 15 17 18 13 9 13 12 12 12 12 12 12 11 11

GFSFLT2_con_lsi_033.txt.gz
Lid_Strength_Index
15 14 15 14 13 13 13 13 12 11 10 10 9 9 8 8 7 7 7 6 6 6 5 5 4 4 4
16 15 15 14 14 14 14 13 12 12 10 10 9 9 8 8 8 7 7 7 6 6 5 5 4 4 4
16 15 15 14 14 14 13 13 13 12 11 10 10 9 8 8 8 7 7 7 6 5 5 4 4 4 3
16 15 15 14 14 14 15 13 13 12 11 11 10 9 9 8 8 8 7 7 6 6 5 5 4 4 3
16 16 15 15 15 14 15 14 13 12 12 11 11 11 10 9 8 8 8 7 7 6 5 4 4 3 2
16 15 15 14 14 14 14 14 16 11 12 12 11 11 9 9 8 8 7 7 6 6 5 4 4 3 2
14 14 14 13 13 14 13 13 14 12 12 13 11 11 9 9 8 8 8 7 7 6 6 5 4 3 3
13 12 12 12 12 12 12 12 12 11 11 14 10 11 10 9 8 8 8 7 7 6 6 5 5 4 3
11 11 11 11 11 12 13 13 14 12 10 12 12 12 11 10 9 9 8 8 7 7 7 6 6 5 5
13 14 13 13 12 12 12 14 14 14 11 13 12 12 14 10 10 10 10 9 9 8 8 7 7 8 7
15 14 14 13 12 11 11 12 14 14 11 12 12 13 14 14 12 11 11 10 10 10 9 9 8 8 9
15 14 13 12 12 12 12 12 12 13 11 12 14 14 15 15 15 12 11 10 10 10 9 9 9 8 7
14 13 13 12 13 12 12 12 12 12 11 12 13 14 14 15 15 14 13 12 11 11 10 10 10 10 10
14 13 13 13 13 12 13 12 13 12 10 11 12 13 14 14 14 15 13 14 11 11 10 10 9 9 10
15 15 14 14 13 13 13 13 14 13 12 11 10 11 12 13 15 14 14 13 11 11 11 11 10 10 9
15 15 15 15 14 13 12 13 14 13 13 12 11 12 11 10 11 13 12 12 10 10 10 12 11 9 8
16 16 16 15 14 14 14 13 13 12 12 11 12 13 14 15 11 9 12 11 11 11 11 11 12 10 9

GFSFLT2_con_lsi_036.txt.gz
Lid_Strength_Index
15 15 14 14 13 12 12 12 12 11 11 11 11 11 10 9 8 8 7 7 6 6 5 5 4 4 4
16 15 15 14 14 14 13 13 12 12 11 11 10 10 10 9 9 8 7 7 7 6 6 5 5 5 4
16 15 14 14 15 14 13 13 12 12 11 11 10 10 9 8 8 8 7 7 7 7 6 6 5 4 3
15 15 14 14 14 15 15 13 14 12 11 10 10 9 9 8 8 8 8 8 7 7 6 5 5 5 4
15 15 15 15 14 14 15 14 12 11 11 10 10 10 9 8 8 8 8 7 7 6 6 5 5 5 4
15 15 15 14 13 13 13 14 14 10 11 11 10 10 9 8 7 7 7 6 6 6 6 6 5 5 5
14 13 13 12 12 13 13 13 14 11 11 12 10 10 8 7 6 6 6 6 6 6 6 6 5 5 5
11 11 11 11 12 12 12 12 11 11 10 13 10 9 8 7 6 6 7 7 7 7 6 6 6 6 5
11 11 11 11 11 12 13 13 13 12 10 10 9 10 9 8 7 7 7 7 7 7 7 7 7 6 6
12 12 12 12 12 12 12 13 13 12 9 11 10 10 12 8 8 8 8 7 8 8 8 7 7 8 8
13 13 12 12 11 10 10 10 12 13 10 10 11 11 11 11 9 8 9 8 8 8 8 8 8 8 9
14 13 12 11 10 10 10 10 10 11 10 10 12 12 12 13 13 9 9 9 9 9 8 8 8 7 7
13 12 11 10 11 11 10 10 10 10 10 10 12 12 12 13 13 12 12 10 10 10 10 9 9 9 10
12 12 11 11 11 10 11 10 11 10 8 9 10 11 12 12 12 13 12 14 11 10 10 9 9 9 9
12 12 12 12 11 10 11 11 12 11 9 9 8 9 10 11 13 12 12 12 11 11 11 11 10 9 9
13 13 13 13 12 11 11 11 11 11 11 10 10 10 10 9 8 10 10 11 10 10 10 11 10 9 8
13 13 13 13 13 12 11 11 11 11 11 10 10 11 12 13 9 7 11 10 10 11 10 10 11 9 8

GFSFLT2_con_lsi_039.txt.gz
Lid_Strength_Index
15 14 14 14 13 13 12 13 13 11 10 10 10 10 10 10 10 9 9 8 8 7 6 6 5 5 4
15 15 15 15 15 14 13 13 13 12 11 10 11 11 10 10 10 9 9 8 8 7 7 6 5 5 5
15 14 15 14 14 13 14 13 12 11 11 11 11 11 10 10 10 9 8 7 7 7 7 6 6 5 5
15 14 14 13 14 15 15 14 14 13 12 11 11 10 9 9 8 8 8 8 7 7 7 7 6 6 5
15 15 15 14 15 14 15 14 14 12 12 12 11 11 11 9 9 8 8 8 7 7 6 6 5 4 4
14 16 15 15 14 15 14 14 15 12 13 13 11 12 11 11 8 8 7 7 7 6 5 5 5 5 5
15 15 15 13 13 13 14 14 14 13 13 14 12 12 11 10 8 7 6 6 5 5 5 5 5 5 5
12 12 12 12 12 12 13 13 13 12 12 14 12 12 10 9 6 6 5 5 6 6 6 6 6 6 6
11 11 11 10 11 12 14 15 15 13 12 12 12 11 10 9 8 6 6 6 6 6 6 6 6 6 7
13 12 12 12 11 12 13 14 13 13 11 12 12 12 13 10 9 9 9 7 6 6 6 7 7 8 9
14 14 14 13 12 12 11 12 12 13 11 11 13 12 12 12 10 9 9 9 9 8 7 7 7 8 10
15 15 13 12 11 10 10 10 10 11 11 10 12 13 13 14 14 12 11 10 10 10 10 8 8 7 7
15 13 12 11 12 12 11 10 10 10 10 11 11 12 12 14 14 13 12 11 11 11 11 11 11 10 11
13 13 12 12 12 11 11 11 11 11 10 9 10 10 12 12 12 13 12 13 11 11 11 11 11 11 11
13 13 13 13 12 11 11 11 12 13 12 10 8 8 9 10 12 12 12 11 11 11 11 12 11 11 11
13 13 13 13 13 13 12 12 13 12 11 10 10 10 10 9 8 11 11 11 10 10 10 12 11 10 9
13 13 13 14 14 14 13 13 13 12 12 10 10 11 13 14 10 6 10 10 11 11 11 12 12 11 10

GFSFLT2_con_lsi_042.txt.gz
Lid_Strength_Index
15 15 14 13 12 12 12 12 12 10 9 9 9 9 9 9 9 9 9 8 8 8 8 7 7 7 6
15 15 14 14 13 14 13 12 12 11 11 10 9 9 9 10 10 9 9 9 9 8 8 8 8 7 7
15 14 15 14 14 14 13 13 12 11 10 10 10 10 10 10 9 9 9 8 8 8 8 7 7 6 6
14 14 14 13 14 14 15 14 14 13 13 12 11 10 9 9 9 8 8 8 8 7 7 7 7 7 6
15 15 14 15 16 15 16 16 16 15 15 15 14 13 12 10 9 9 9 8 8 8 7 7 7 6 6
15 16 16 16 16 17 18 18 18 14 15 14 14 13 13 13 9 9 8 8 7 7 7 6 6 5 5
15 16 17 16 15 16 16 17 17 15 15 15 14 14 13 11 9 8 7 7 7 6 6 5 5 5 5
15 15 14 13 14 15 15 15 14 14 14 16 15 14 12 12 8 7 7 6 6 5 5 5 5 5 5
11 10 10 10 11 14 18 19 17 16 14 15 14 14 13 11 11 7 7 6 6 6 5 5 5 5 6
15 14 13 14 11 14 17 21 20 18 14 16 15 14 16 12 12 11 11 8 7 7 7 6 6 8 9
16 16 16 16 15 15 14 18 21 15 12 12 19 16 13 13 11 11 11 11 11 10 8 8 7 7 9
17 17 17 17 16 15 12 12 12 12 12 11 12 14 13 13 13 12 12 11 11 12 11 9 8 7 7
17 18 18 17 17 16 15 11 11 10 10 10 11 12 12 13 13 12 12 11 11 12 12 12 12 11 12
17 16 15 17 16 16 16 12 12 11 9 9 11 12 12 11 11 12 12 13 12 11 11 11 11 11 12
16 14 13 13 13 12 13 12 13 13 12 11 10 9 9 10 11 11 11 12 11 12 12 11 10 10 11
14 14 14 13 14 13 13 13 14 13 13 12 11 11 11 10 8 11 10 11 10 10 11 11 10 9 10
14 14 13 13 13 14 14 14 14 13 13 12 12 13 14 15 11 7 10 10 11 10 10 11 11 11 11

GFSFLT2_con_lsi_045.txt.gz
Lid_Strength_Index
14 13 13 12 11 12 12 11 11 9 9 8 8 8 8 8 8 8 8 8 7 7 7 7 6 6 6
14 14 13 12 12 13 12 11 11 10 9 9 10 9 8 9 9 9 9 9 8 8 7 7 7 7 7
14 14 15 14 14 13 13 12 12 11 9 9 9 9 9 9 9 9 9 8 8 8 8 8 8 7 7
14 14 14 13 13 14 14 13 13 12 11 12 11 10 10 9 9 9 8 8 7 7 7 7 7 7 6
14 14 14 14 15 14 15 15 15 15 16 15 14 13 13 10 10 9 9 8 8 7 7 7 7 7 7
14 15 15 15 16 16 17 19 17 15 15 15 14 14 14 13 9 9 8 8 8 7 7 7 7 6 6
15 15 16 16 17 18 16 17 17 15 15 15 14 14 13 12 9 8 8 7 7 7 6 6 6 5 5
14 16 16 15 15 15 15 15 15 15 14 18 15 15 13 13 9 8 7 7 6 6 6 6 5 5 5
11 11 11 10 11 15 18 19 18 16 15 16 15 15 14 14 12 8 8 7 7 7 6 6 6 6 6
16 15 14 15 11 14 17 22 22 21 15 17 15 14 17 13 13 12 12 9 8 8 7 7 7 9 10
17 17 17 17 16 16 15 20 24 20 13 12 16 14 13 15 12 12 12 12 12 11 9 8 8 8 9
17 18 18 18 17 16 14 15 15 14 12 11 13 14 14 14 13 12 12 11 12 12 12 9 8 7 7
17 18 19 19 19 18 16 14 14 12 10 11 11 12 12 13 13 12 12 12 11 11 12 13 12 12 13
17 16 16 18 17 16 17 15 15 14 12 10 10 11 12 13 12 13 12 13 11 10 11 11 11 11 11
17 16 15 14 14 13 13 13 14 15 14 12 10 10 11 12 12 11 11 11 10 10 11 11 10 10 10
15 15 15 15 15 13 13 13 14 15 14 14 13 12 12 11 9 11 11 11 10 10 10 11 11 9 9
15 15 14 14 14 15 14 14 15 14 14 14 15 14 16 16 12 8 12 11 12 11 10 11 12 11 10

GFSFLT2_con_lsi_048.txt.gz
Lid_Strength_Index
10 11 11 10 9 10 10 10 10 8 7 8 8 8 7 7 8 8 8 8 7 7 7 6 6 6 6
11 12 12 11 12 12 11 11 11 10 9 8 8 8 8 8 8 8 8 8 8 8 7 7 7 7 7
12 12 13 13 14 13 13 12 11 10 9 9 9 8 8 8 9 9 9 8 8 8 8 8 8 7 7
12 13 13 13 13 13 14 13 13 11 11 10 10 10 10 10 10 9 9 9 8 8 8 7 7 7 6
12 13 13 13 14 13 14 14 14 14 15 15 15 15 14 11 10 10 9 8 8 8 7 7 6 6 6
14 14 14 14 14 15 16 18 19 16 17 17 15 14 13 13 10 9 8 8 7 7 7 7 6 6 6
15 16 16 16 17 19 18 20 19 17 16 15 15 14 14 12 9 9 8 8 7 7 7 6 6 6 5
14 15 15 15 15 16 16 17 15 15 15 19 16 16 14 14 10 9 8 7 7 7 6 6 6 6 5
12 11 11 11 12 15 19 21 19 17 15 16 16 16 15 15 14 9 8 8 8 7 7 7 6 6 7
16 16 15 15 12 15 18 23 22 21 16 18 16 15 18 14 13 13 13 10 8 8 7 7 7 9 11
17 17 17 17 16 16 15 21 25 22 15 15 16 13 13 15 13 13 13 13 13 11 9 7 7 8 11
18 18 18 19 18 17 15 16 17 17 15 14 13 13 14 14 14 13 13 13 13 12 12 10 8 7 6
18 19 20 19 20 19 18 16 17 15 12 12 11 12 12 13 13 12 12 13 12 12 12 13 12 12 13
18 17 16 20 18 16 16 14 18 15 13 13 11 11 12 12 12 13 13 14 14 13 13 11 11 11 11
18 17 15 15 15 16 14 14 16 17 15 14 12 12 11 12 13 12 13 12 11 10 10 11 10 9 9
15 15 16 16 15 14 14 16 16 16 15 15 17 16 14 13 9 12 11 11 10 10 10 11 11 10 9
16 16 16 15 15 15 16 16 16 16 15 14 20 19 16 17 14 9 13 12 12 12 12 12 12 11 10

GFSFLT2_con_lsi_051.txt.gz
Lid_Strength_Index
9 9 9 8 7 8 7 9 7 5 5 6 6 6 7 7 7 6 6 7 7 6 6 6 6 6 6
11 11 11 10 10 10 9 9 9 9 7 7 7 7 7 7 7 7 7 7 7 7 7 7 7 6 6
12 12 12 12 12 11 11 11 10 10 9 8 8 8 7 7 7 7 8 8 8 8 8 7 7 7 7
12 12 12 12 12 12 13 12 12 11 10 10 10 10 9 9 9 9 9 9 9 8 8 8 8 7 7
13 13 13 13 13 12 13 13 13 13 14 15 15 15 15 13 12 11 10 9 8 8 7 7 6 6 6
13 14 13 13 14 14 15 16 18 16 17 17 16 16 15 14 10 9 8 8 7 7 7 6 6 6 6
16 16 16 16 17 18 17 19 18 16 16 16 16 15 15 13 10 9 8 8 7 7 7 6 6 6 6
15 15 15 15 15 17 17 17 16 15 16 20 17 16 15 15 10 9 8 8 7 7 7 6 6 6 6
12 12 11 11 12 16 17 21 19 17 16 16 16 16 15 15 14 10 8 8 8 8 7 7 7 6 7
17 16 15 16 13 15 18 23 23 22 16 18 17 16 19 15 14 14 13 10 9 8 7 7 7 10 11
18 18 17 17 16 16 16 22 26 23 15 17 22 14 14 15 14 13 13 13 13 11 9 8 7 8 12
18 18 19 19 18 18 16 17 18 18 16 19 18 17 15 14 14 13 13 13 13 12 12 10 8 7 6
19 20 20 20 20 19 18 16 18 16 14 19 17 14 13 14 14 13 12 13 12 12 13 13 13 14 13
19 17 17 21 19 14 16 15 15 17 15 16 18 15 13 13 12 13 12 14 15 15 15 12 11 11 11
19 17 15 15 15 15 15 15 16 17 16 15 14 15 14 14 13 12 12 12 11 11 12 11 10 9 9
19 16 16 16 16 15 15 19 18 17 17 17 19 19 16 14 10 13 12 11 11 11 11 12 12 10 10
23 22 18 16 16 16 17 18 17 17 16 19 23 20 18 18 14 8 12 12 12 12 12 12 13 12 11

GFSFLT2_con_lsi_054.txt.gz
Lid_Strength_Index
10 10 10 9 8 8 7 7 6 3 3 4 5 5 5 5 5 6 6 5 5 5 5 5 5 5 5
12 11 11 11 10 9 8 8 8 7 6 6 6 6 6 6 6 6 6 7 7 6 6 7 6 7 6
12 12 12 11 12 11 11 10 9 9 9 8 7 7 7 7 7 7 7 7 8 8 8 8 7 7 7
12 12 12 12 11 12 12 11 11 10 9 9 9 9 9 8 9 9 9 9 9 8 8 8 8 8 7
12 12 12 12 13 12 12 12 12 11 13 14 14 14 14 12 12 11 11 10 10 9 9 8 8 7 7
17 16 16 15 15 15 16 18 18 15 16 16 15 15 14 14 11 10 9 8 8 8 7 7 7 6 6
17 17 17 17 18 19 17 19 18 16 16 17 16 15 15 14 11 10 9 8 8 7 7 7 7 7 6
16 16 16 16 16 18 17 18 16 15 16 20 17 16 15 15 11 9 8 8 7 7 7 7 6 6 6
12 12 12 12 13 16 19 21 19 17 16 17 17 16 15 15 14 9 9 8 8 8 8 7 7 7 8
17 17 16 17 14 16 18 24 23 22 17 18 17 16 19 15 15 14 13 11 9 9 8 7 7 9 10
19 19 18 17 17 16 16 23 26 24 16 18 24 18 17 17 15 14 14 13 13 12 9 8 7 8 11
19 19 19 20 19 19 17 18 19 19 17 20 22 21 23 17 15 14 14 13 13 12 13 10 8 7 7
20 21 21 21 21 20 19 17 18 17 14 20 21 22 17 15 15 14 13 14 13 13 13 14 13 13 13
20 18 18 21 20 15 16 19 18 18 16 19 21 20 15 14 14 14 13 14 15 15 14 13 12 11 11
20 19 17 16 16 15 15 15 16 20 18 17 16 16 16 16 16 15 14 13 13 12 11 11 10 10 9
22 22 20 20 19 17 15 16 19 19 19 19 21 20 18 16 12 15 14 14 13 12 12 12 11 10 10
26 26 23 23 17 20 18 17 19 19 19 21 25 23 20 20 16 10 14 14 14 13 12 12 12 11 10

GFSFLT2_con_lsi_057.txt.gz
Lid_Strength_Index
8 9 8 8 7 7 6 6 6 4 3 3 4 4 4 4 5 5 5 5 5 5 4 4 4 4 4
10 10 10 9 9 8 8 8 8 6 5 5 6 6 6 6 6 6 6 6 6 6 6 6 5 6 5
10 10 10 10 9 10 10 9 9 8 7 7 6 6 6 6 6 6 6 6 7 7 7 7 7 7 6
10 10 11 11 11 11 11 10 10 9 9 8 7 7 7 8 8 9 9 9 9 8 8 8 8 7 7
11 11 11 11 12 11 11 11 10 11 11 11 11 10 9 10 10 10 10 10 9 9 9 8 8 8 8
12 12 13 13 12 13 13 13 13 12 12 12 11 11 11 10 10 9 9 9 8 8 8 7 7 7 7
13 13 13 13 14 14 14 13 14 12 12 13 12 13 12 12 11 10 9 8 8 7 7 7 7 6 6
13 13 13 13 13 13 13 13 13 12 12 14 13 13 12 11 11 10 9 8 7 7 7 7 6 6 6
13 13 13 13 12 13 14 14 15 14 13 14 13 13 12 12 11 10 9 8 8 7 7 7 7 7 7
16 16 16 15 14 14 14 15 15 15 14 14 14 14 14 12 11 10 10 10 9 9 8 8 7 7 7
17 16 15 15 14 14 14 15 15 15 13 13 14 13 13 13 12 11 11 11 10 10 9 8 8 7 7
18 17 16 15 15 14 15 14 14 15 13 14 14 14 14 15 14 12 11 11 10 10 9 9 8 8 7
18 17 16 15 16 15 15 14 14 14 13 14 15 14 15 15 14 13 13 11 10 10 10 9 9 9 10
17 16 16 16 16 15 16 15 15 15 14 14 15 15 15 14 14 14 13 13 10 10 10 10 9 9 9
17 17 17 16 16 15 15 15 16 16 15 14 13 13 14 15 15 14 13 12 11 11 11 11 10 9 9
18 18 17 17 17 16 15 15 16 16 15 14 15 15 15 13 12 13 12 12 11 11 11 12 11 9 8
19 18 18 18 18 17 17 16 16 15 15 15 16 17 18 17 12 10 12 11 11 11 10 11 11 9 9

GFSFLT2_con_lsi_060.txt.gz
Lid_Strength_Index
7 7 6 6 6 6 6 5 5 5 4 4 4 3 3 4 4 4 5 5 5 5 4 4 3 3 4
8 7 8 7 7 7 7 7 6 6 6 5 5 5 5 5 5 6 6 6 5 5 5 5 5 5 5
9 8 8 9 9 8 8 8 7 8 7 7 6 6 6 6 5 6 6 6 6 7 7 7 6 6 6
9 9 9 10 10 10 8 8 9 8 9 9 9 8 8 7 7 8 8 8 7 7 7 7 7 7 7
9 9 9 10 11 10 10 10 9 10 10 9 9 9 8 9 9 10 9 9 8 7 7 7 6 6 7
9 10 10 11 10 11 12 12 12 10 12 11 10 10 10 9 10 10 9 9 9 8 8 8 7 7 6
11 11 12 12 12 12 12 12 13 12 12 13 11 12 10 11 11 10 10 9 9 9 8 8 7 6 6
11 11 11 11 12 12 12 13 12 12 12 14 12 12 10 10 11 10 9 9 9 8 8 7 7 6 6
13 13 13 13 13 12 13 14 14 14 12 13 12 12 11 11 10 11 10 10 9 8 7 7 7 6 6
14 14 15 14 14 14 13 15 14 14 13 13 13 13 13 11 11 10 10 11 10 9 8 8 8 8 8
15 15 15 14 14 13 14 14 14 14 13 13 14 13 13 13 11 11 10 10 9 9 9 9 8 8 8
16 16 15 15 14 14 14 13 13 14 13 13 14 14 14 15 14 11 10 9 9 9 9 9 9 8 7
16 15 15 14 14 14 14 14 14 13 13 13 14 14 14 15 14 13 12 10 9 10 10 9 9 8 9
16 15 15 15 15 14 15 14 15 14 13 13 13 14 14 13 13 13 12 12 10 10 10 9 9 8 8
16 16 16 15 15 14 14 14 15 15 14 13 12 12 12 13 14 13 12 12 10 10 10 10 9 9 8
16 16 16 16 15 15 15 15 15 14 14 13 13 13 13 12 11 13 12 11 10 9 10 11 11 9 8
16 16 16 16 16 16 15 15 15 14 13 12 13 14 16 16 11 10 11 11 10 10 9 9 10 8 8

GFSFLT2_con_lsi_063.txt.gz
Lid_Strength_Index
7 6 6 7 7 6 6 6 6 5 4 4 4 4 3 3 3 2 3 3 4 4 4 4 4 4 3
8 7 8 8 7 7 7 7 6 7 6 5 5 5 4 4 4 4 4 5 5 5 5 5 5 4 5
9 8 9 9 9 8 8 8 7 8 8 7 7 6 6 6 6 6 5 5 5 5 5 5 6 5 5
9 9 10 9 9 10 9 8 9 9 9 9 9 9 8 8 8 8 8 8 7 6 6 5 5 5 5
9 9 10 10 11 10 11 11 10 11 12 11 11 10 10 9 9 10 9 9 8 8 7 7 6 6 5
11 11 11 11 11 13 13 14 14 12 14 14 12 13 12 12 11 10 10 9 9 8 8 8 8 8 7
13 13 13 13 13 13 13 14 15 13 14 15 13 14 13 11 10 10 10 9 9 9 8 8 8 8 7
12 12 12 12 12 13 14 14 14 14 14 16 14 14 13 12 11 10 10 9 9 9 8 8 8 8 7
13 13 13 13 13 13 14 15 16 16 15 16 15 15 14 13 12 11 10 10 10 9 8 8 8 8 8
14 15 14 15 14 15 15 17 16 16 15 16 15 15 16 13 13 13 13 10 10 10 9 9 8 9 10
16 16 16 15 15 15 15 16 17 16 15 15 15 16 16 16 14 13 13 13 12 11 9 9 8 8 11
17 17 16 15 15 15 15 15 14 16 14 15 18 16 16 16 17 14 13 13 13 13 12 9 8 8 7
17 16 15 15 16 16 15 15 14 15 14 16 15 15 15 16 16 15 14 13 12 12 12 13 12 12 13
16 16 16 16 16 15 16 16 16 16 13 15 14 15 16 16 15 14 14 15 13 13 13 12 11 11 11
17 17 16 16 16 15 16 16 17 17 16 14 14 14 13 15 15 14 14 14 13 13 13 11 11 11 11
16 16 17 17 17 16 16 17 17 16 16 15 15 15 15 13 11 14 14 14 13 11 11 12 12 10 10
17 17 17 18 17 18 17 17 17 16 16 16 17 16 17 18 14 9 14 13 13 13 12 12 12 10 9

GFSFLT2_con_lsi_066.txt.gz
Lid_Strength_Index
7 7 8 8 8 7 7 7 6 5 5 4 4 3 3 3 3 3 2 2 2 2 2 2 2 3 3
8 8 9 10 10 9 8 7 7 7 6 5 5 5 4 4 4 4 4 4 4 4 3 3 3 3 3
10 9 10 11 10 9 9 10 8 7 7 7 7 7 5 5 6 6 6 5 5 5 5 4 4 4 4
10 11 11 11 10 12 12 11 12 10 9 9 9 8 8 8 8 8 8 8 7 6 6 6 5 5 5
11 11 11 12 13 13 14 14 13 13 15 14 14 13 12 10 10 10 10 9 9 8 7 7 6 6 6
12 12 14 15 15 16 16 18 18 15 16 16 15 16 15 15 11 10 10 10 9 9 8 8 8 7 7
16 16 16 15 16 16 16 18 17 15 16 18 16 16 15 13 10 11 10 9 9 9 9 8 8 8 8
15 15 15 15 15 15 16 16 16 16 16 20 17 17 15 15 11 11 11 10 9 9 9 8 8 8 8
13 13 13 13 14 16 18 19 19 18 17 17 17 17 16 16 14 11 10 10 10 10 9 8 8 8 10
17 16 15 16 14 16 18 23 21 20 17 19 17 17 20 15 15 14 14 11 10 10 10 9 9 11 12
18 18 18 17 17 17 16 21 23 22 15 18 22 20 21 19 16 15 15 14 14 13 10 9 8 9 10
19 19 19 19 18 18 16 17 17 19 17 18 23 23 23 18 18 16 16 15 15 14 14 10 8 8 7
19 19 20 19 20 19 18 17 18 17 15 20 20 21 17 17 17 16 15 15 13 15 15 15 14 14 14
19 18 18 20 19 19 20 19 20 18 16 16 18 19 16 16 15 16 16 17 16 15 14 13 12 12 12
19 18 17 18 17 19 18 20 21 21 19 17 16 17 16 19 18 16 16 16 15 14 15 13 11 10 10
20 20 20 20 20 19 20 21 22 20 20 20 19 15 17 16 13 16 15 16 15 15 13 12 12 11 11
22 23 23 22 18 21 21 21 21 21 21 21 22 23 20 18 16 12 16 18 16 14 15 14 14 13 12

GFSFLT2_con_lsi_069.txt.gz
Lid_Strength_Index
8 8 9 9 9 7 7 7 7 6 5 5 4 3 3 3 3 2 2 2 2 1 1 1 1 1 1
9 9 10 10 11 9 8 7 8 8 7 6 5 5 4 4 4 4 4 4 4 3 2 2 3 3 2
11 10 10 11 10 10 9 11 9 8 8 8 7 6 6 5 6 6 6 5 5 5 5 4 4 4 3
10 11 11 11 11 13 13 13 13 12 11 9 9 8 8 7 8 8 8 8 7 7 6 6 6 5 5
11 11 11 12 14 14 15 15 15 15 15 15 15 14 13 9 10 10 10 10 9 8 8 7 7 6 6
13 13 14 15 15 16 16 19 18 16 17 17 16 16 16 15 11 11 10 10 10 10 9 8 8 8 7
16 16 16 16 16 17 17 18 17 16 17 18 17 16 15 13 11 11 10 10 9 9 9 9 9 8 8
15 15 15 15 15 15 16 17 16 16 17 20 17 17 16 16 11 11 11 11 10 10 9 9 8 8 8
12 12 13 13 14 16 18 20 19 18 17 17 17 17 16 16 15 11 10 10 10 10 10 9 9 9 11
16 16 16 16 14 17 18 23 22 21 17 19 18 17 20 16 15 15 15 11 10 10 10 10 9 12 13
18 18 18 17 17 17 17 21 24 23 16 19 24 20 21 20 17 16 16 15 15 14 11 10 9 9 14
18 18 19 19 18 18 17 18 18 19 17 20 24 23 25 24 20 17 17 16 16 16 15 12 10 9 8
18 19 18 18 19 20 19 18 19 17 16 21 22 25 23 24 22 19 17 17 16 18 17 16 15 15 15
18 17 17 20 19 19 21 20 21 19 16 17 20 21 24 20 18 17 17 18 18 17 16 15 14 13 13
18 18 18 17 18 19 19 21 22 22 20 18 16 17 18 21 19 18 17 17 17 16 17 17 14 14 12
18 19 19 19 19 20 21 22 23 21 21 20 20 16 16 16 14 15 16 17 17 17 16 19 14 13 12
18 19 21 22 18 21 21 22 22 22 22 23 25 26 25 20 16 11 16 21 19 16 16 16 15 14 13

GFSFLT2_con_lsi_072.txt.gz
Lid_Strength_Index
9 9 10 10 9 8 8 8 7 6 5 5 5 4 3 3 3 2 2 2 1 1 0 0 -0 -0 0
10 10 11 11 10 9 8 8 9 8 7 6 6 5 5 4 4 4 3 3 3 3 2 2 2 2 2
12 11 12 10 10 10 9 11 10 9 8 8 7 7 7 6 6 6 6 5 5 4 4 4 4 3 3
11 12 11 11 11 13 12 13 14 12 12 10 9 8 8 8 8 8 8 8 7 7 6 6 5 5 5
11 11 12 12 14 14 15 15 15 16 15 16 15 15 13 10 10 10 10 10 9 9 8 7 7 7 6
12 13 14 15 15 16 16 18 18 16 17 17 16 17 16 16 11 10 10 9 9 10 10 9 8 8 8
14 15 15 15 16 16 17 18 17 16 17 18 17 17 16 14 11 10 10 10 9 9 10 10 9 9 9
15 15 15 15 14 15 16 17 16 16 17 20 18 17 16 16 11 11 11 10 10 10 9 9 9 9 9
12 12 11 11 13 16 17 19 19 18 17 17 18 17 17 16 15 11 10 10 10 10 10 9 9 9 11
16 16 15 15 13 16 17 20 19 20 17 18 18 18 20 17 16 16 15 11 10 10 10 10 10 13 13
18 18 18 17 17 16 16 19 22 22 16 19 24 21 22 20 17 16 16 16 16 15 12 11 10 10 15
18 18 18 18 17 16 16 17 17 19 17 20 25 23 26 24 20 17 17 17 17 16 17 14 12 11 10
18 18 18 18 18 17 17 17 19 18 16 22 22 25 25 24 23 20 17 17 18 19 18 18 18 16 17
18 17 17 18 17 17 19 19 21 19 16 18 22 23 25 21 22 20 18 20 20 19 18 17 16 15 15
17 17 17 16 16 17 19 22 22 22 20 18 16 18 19 21 18 17 18 18 18 19 19 18 16 15 14
17 17 17 17 17 18 20 22 22 21 22 21 21 18 17 17 15 17 16 17 19 18 17 20 17 15 14
17 18 18 18 17 18 19 19 20 20 21 22 26 25 24 21 17 13 17 22 21 18 17 17 17 15 14

GFSFLT2_con_lsi_075.txt.gz
Lid_Strength_Index
9 9 10 9 9 9 9 9 8 6 6 5 5 5 4 3 3 3 2 2 1 -0 -1 -1 -1 -0 0
10 10 11 11 11 10 10 9 10 8 6 6 6 5 4 5 5 4 4 3 3 2 1 1 1 1 1
12 11 11 11 11 11 11 12 11 10 8 8 7 7 6 6 6 6 6 5 5 5 4 4 3 3 3
11 11 11 11 11 13 12 14 14 13 12 11 9 8 8 8 8 8 8 8 7 6 6 6 5 5 5
12 11 11 12 13 14 14 15 15 15 16 15 15 15 13 11 11 10 9 9 9 8 8 7 7 7 7
12 12 12 14 15 15 16 17 17 16 16 17 16 16 16 15 11 10 10 9 9 9 9 9 8 8 8
13 15 15 15 16 16 16 16 17 16 16 18 17 16 16 14 11 10 10 10 9 9 9 9 9 9 9
15 16 15 15 15 15 15 17 16 16 17 19 17 17 16 16 11 11 11 10 10 10 9 9 9 9 8
12 12 12 11 13 15 17 18 18 17 17 17 18 17 17 16 15 11 11 10 10 10 10 10 9 9 11
16 16 16 14 12 16 16 20 19 19 17 18 18 18 19 17 16 16 16 11 11 11 10 10 10 13 14
18 18 17 16 17 16 16 19 20 20 16 18 21 19 21 20 17 17 17 16 16 15 13 12 11 11 16
18 18 18 17 17 16 16 16 16 17 15 17 22 22 25 22 20 17 17 17 17 17 17 14 13 12 12
18 18 18 17 17 17 16 16 17 16 16 19 20 25 24 23 22 20 18 17 18 20 18 18 18 17 18
18 17 17 17 17 16 17 17 17 17 15 17 20 21 23 21 21 21 21 21 20 20 19 18 17 16 17
17 17 17 16 16 17 17 18 19 19 17 17 16 18 19 21 19 18 18 19 19 20 19 19 18 17 16
18 18 18 18 18 18 18 19 19 19 19 19 18 18 17 17 15 17 17 17 19 19 18 20 19 18 16
18 19 19 19 17 18 18 18 19 18 19 19 21 21 22 21 16 13 17 21 21 20 19 19 19 17 15

GFSFLT2_con_lsi_078.txt.gz
Lid_Strength_Index
9 9 9 9 9 9 8 9 9 8 7 7 7 6 4 4 3 3 2 2 1 0 -0 -1 -2 -1 -1
10 10 10 10 10 9 9 9 10 9 8 8 7 6 5 5 5 4 4 3 3 2 1 1 -0 -0 -0
10 10 11 10 10 10 10 11 12 11 10 8 7 7 6 6 7 6 6 5 5 4 4 3 3 2 2
9 10 10 10 10 12 12 12 14 13 12 11 10 8 8 8 8 8 8 8 7 6 5 5 5 4 4
10 10 11 11 12 12 13 14 15 15 15 15 15 15 13 12 10 9 9 8 9 8 7 7 6 6 6
11 11 11 12 13 14 16 18 17 15 16 16 16 16 15 14 10 10 9 9 8 9 9 9 8 8 7
11 12 12 13 15 17 16 16 17 16 16 17 16 16 15 14 11 10 10 10 9 9 9 9 9 9 9
14 14 14 14 15 15 16 16 16 16 16 19 17 16 16 15 11 10 10 10 10 10 9 9 9 8 8
11 11 11 12 13 16 16 18 17 17 16 17 17 17 16 16 15 10 10 10 10 10 10 10 9 9 11
16 16 15 14 12 16 15 17 18 18 16 17 17 17 18 16 16 16 15 12 11 11 11 10 10 13 14
18 18 17 16 17 16 15 17 20 19 15 17 19 17 18 18 17 17 17 16 16 15 13 12 11 12 15
18 18 19 18 17 16 16 16 16 17 15 17 20 19 19 21 19 17 17 17 17 16 16 14 13 13 12
18 17 17 17 17 17 16 16 16 15 15 16 17 21 22 22 21 20 18 17 17 18 17 17 17 17 18
18 17 17 18 17 16 17 17 18 17 15 17 19 20 22 21 21 22 20 20 18 19 17 18 17 16 16
18 18 17 16 16 17 17 19 20 20 18 17 16 17 18 19 19 18 18 19 19 20 19 19 17 17 16
18 18 18 18 18 18 19 19 20 20 19 18 18 19 17 16 15 17 17 17 19 19 18 20 18 18 16
18 19 19 19 17 19 20 20 20 20 20 20 21 21 22 20 16 13 18 18 19 18 18 19 19 16 16

GFSFLT2_con_lsi_081.txt.gz
Lid_Strength_Index
7 7 7 7 8 8 8 8 8 7 6 6 6 6 5 5 4 4 3 2 1 -0 -1 -2 -1 -1 -1
6 7 8 8 8 8 8 9 9 8 7 7 7 6 6 7 6 5 4 4 3 2 1 0 -1 -0 -1
7 7 8 8 8 8 9 10 11 9 8 7 7 7 7 7 7 7 6 5 4 4 3 2 2 1 0
7 8 9 9 9 10 10 10 11 11 11 10 10 9 8 8 9 8 9 7 6 5 5 4 4 3 3
9 9 9 10 11 11 10 12 13 11 11 11 12 12 10 11 9 10 8 8 8 7 6 6 5 5 4
9 10 10 10 11 11 12 13 11 12 12 13 13 12 12 11 10 9 9 8 8 9 8 8 7 7 6
10 10 11 11 12 13 13 12 14 14 13 14 13 13 13 12 10 10 10 9 9 9 9 9 9 8 8
10 11 11 11 11 11 12 13 14 14 14 15 14 14 13 12 11 10 10 10 10 9 9 9 8 8 8
11 11 11 11 12 12 13 15 15 15 14 14 14 14 13 13 12 10 10 10 10 9 9 9 8 9 9
13 13 13 11 12 13 13 14 15 15 14 14 14 14 15 14 13 13 13 11 11 11 10 10 10 10 10
15 15 15 14 14 14 13 14 15 14 14 14 15 15 15 15 14 14 14 13 13 13 13 13 12 11 11
15 16 16 15 14 14 14 14 13 14 13 14 15 15 15 16 16 15 14 14 14 14 14 14 14 13 12
16 16 15 15 14 14 14 14 14 14 14 14 14 16 15 15 15 15 15 14 14 14 14 14 14 14 14
15 15 15 15 15 14 15 15 15 15 14 14 15 16 16 15 16 15 15 15 15 15 14 14 14 14 14
15 16 16 16 16 15 15 15 16 16 16 15 15 15 15 15 16 16 15 16 15 15 15 15 14 14 14
15 15 16 15 15 15 15 15 16 16 16 15 15 15 15 14 14 15 15 15 14 14 15 16 15 13 13
15 15 15 15 15 15 15 16 16 16 15 15 15 15 16 17 14 12 14 14 14 14 14 14 14 13 12

GFSFLT2_con_lsi_084.txt.gz
Lid_Strength_Index
4 4 4 4 5 5 5 6 6 6 6 6 6 5 5 5 5 4 4 3 2 1 0 -1 -1 -1 -1
5 6 6 6 6 7 7 7 7 7 6 6 6 6 6 7 6 6 5 5 5 3 1 1 -0 -1 -1
5 5 6 7 7 7 8 9 10 8 7 6 6 6 6 7 8 8 7 6 5 4 3 3 2 1 1
5 7 7 8 8 9 10 9 11 10 10 9 9 8 7 9 9 9 9 8 7 5 5 4 3 3 2
7 8 9 9 10 9 10 11 11 10 10 9 9 9 8 10 10 10 9 8 8 8 6 5 5 4 3
8 9 8 9 10 11 11 12 11 10 9 9 11 10 11 10 10 10 9 8 9 8 8 7 6 6 5
8 8 9 9 10 11 12 11 10 11 11 11 12 13 12 12 10 10 10 9 8 9 9 8 8 8 7
8 8 9 9 9 10 10 10 11 11 12 13 13 13 12 11 11 10 10 10 10 9 9 8 8 8 8
10 10 10 10 9 10 11 12 12 13 13 14 14 13 13 12 10 10 10 10 10 9 9 8 8 8 8
10 10 10 10 11 11 10 11 12 13 13 14 14 13 14 12 11 11 10 11 10 10 10 10 10 9 9
12 13 12 11 12 12 12 11 12 13 13 12 13 13 12 13 13 12 12 12 12 12 12 12 11 11 11
13 14 14 13 13 13 13 13 12 13 12 12 13 13 13 14 14 14 13 12 12 12 12 12 13 13 12
14 13 13 13 13 13 13 13 13 13 12 13 12 13 13 13 13 14 14 13 13 13 13 13 13 12 13
13 13 13 14 14 13 13 13 13 13 13 13 13 14 14 14 14 14 13 14 13 13 13 13 13 13 13
13 14 15 14 14 13 13 13 14 14 14 14 14 13 13 14 15 14 14 13 13 13 14 14 13 12 12
13 13 14 14 14 14 13 14 14 14 14 13 14 14 14 13 13 14 13 13 12 12 13 14 13 11 11
12 13 13 13 14 14 14 14 14 14 14 13 14 14 15 15 12 12 12 12 12 12 12 12 12 11 10

GFSFLT2_con_lsi_087.txt.gz
Lid_Strength_Index
3 4 4 4 5 5 5 5 5 5 4 4 4 4 4 4 4 4 4 4 3 2 2 1 0 -1 -1
4 5 5 5 6 6 7 7 7 6 5 5 5 4 5 5 5 6 5 5 5 4 3 2 1 -0 -1
6 5 6 6 7 7 8 8 9 8 6 6 6 5 5 7 7 7 7 6 6 5 5 4 3 1 0
6 6 7 7 7 9 9 9 10 10 9 9 8 7 7 8 8 8 8 8 7 6 5 5 4 3 2
7 7 8 9 9 9 10 10 11 11 11 10 10 9 9 9 10 9 9 8 8 8 6 6 5 4 3
8 8 8 8 9 10 11 12 12 10 11 11 11 11 11 11 10 10 10 8 8 9 7 6 6 6 4
8 8 9 9 10 11 11 11 11 12 12 12 13 13 13 12 10 10 10 9 9 9 9 8 8 7 6
8 8 8 9 9 10 10 11 11 12 13 15 14 14 13 13 11 10 10 10 9 9 8 8 8 8 7
10 9 9 8 8 10 11 12 13 14 14 15 15 15 14 14 12 10 10 10 9 9 8 8 8 8 9
11 10 10 10 10 11 11 13 13 15 14 15 15 15 16 14 13 12 12 10 9 10 10 10 10 11 11
12 12 12 12 12 13 12 13 14 14 14 14 15 15 15 15 14 13 13 13 13 12 11 11 11 11 12
14 14 14 13 14 14 14 14 14 14 14 14 15 15 15 16 16 15 14 14 14 14 13 12 12 12 12
14 14 13 13 14 15 15 14 14 14 13 15 15 16 16 16 16 16 15 15 14 15 15 15 15 14 15
14 13 13 14 15 15 15 15 15 16 14 15 16 17 17 16 17 17 16 17 16 15 15 15 14 14 14
14 15 15 15 15 14 15 15 16 16 16 15 15 15 16 18 18 16 17 17 16 16 16 16 15 14 14
14 14 15 15 15 15 15 16 17 16 16 16 16 17 16 15 13 17 16 16 16 15 15 17 16 14 13
13 13 15 15 15 15 15 16 16 16 16 16 17 18 19 19 16 12 17 16 16 15 15 15 16 15 12

GFSFLT2_con_lsi_090.txt.gz
Lid_Strength_Index
5 6 5 6 6 6 5 6 5 5 4 4 4 4 4 4 4 4 3 3 2 2 2 1 1 0 -1
5 6 6 6 6 7 7 7 7 6 5 5 5 4 5 5 6 6 5 4 4 3 3 2 2 1 -1
8 6 8 7 8 7 8 8 9 7 6 6 5 5 5 7 7 7 7 7 5 5 4 4 3 2 1
7 8 8 8 8 9 9 9 10 9 8 8 7 6 6 8 8 8 8 7 7 6 5 5 4 3 3
8 8 9 10 10 9 10 10 10 10 11 10 10 9 8 9 9 9 9 8 8 8 7 6 5 5 4
9 9 9 9 9 10 11 12 12 11 12 11 11 11 12 12 10 9 9 9 8 9 8 7 6 6 5
10 10 10 9 10 11 11 12 11 12 12 12 12 14 14 12 10 10 10 10 9 9 8 8 7 7 6
9 9 9 9 9 10 11 11 12 12 12 14 16 16 15 15 10 10 10 10 9 9 8 8 8 7 7
9 8 7 7 8 10 12 12 13 14 15 15 16 16 16 15 14 9 10 10 9 8 8 8 8 8 9
13 11 10 10 8 12 13 12 14 18 15 17 17 17 19 16 14 14 13 10 9 9 9 9 9 12 12
14 14 14 14 14 14 13 15 18 19 15 15 20 19 18 18 16 15 14 14 14 13 10 11 11 11 13
15 15 15 16 16 16 14 15 15 16 15 15 18 20 21 21 18 16 15 15 15 15 15 12 11 11 11
16 17 17 16 16 17 16 15 16 15 15 16 20 21 21 21 19 18 17 16 16 17 17 16 16 15 16
15 15 15 17 17 17 18 18 19 18 15 18 20 20 21 20 20 20 19 19 18 18 17 17 15 15 15
15 15 15 15 16 17 17 18 19 18 17 17 16 17 19 20 21 19 18 18 18 18 18 19 17 15 14
15 15 16 16 16 17 18 19 18 18 18 18 19 20 19 17 15 18 19 18 18 17 17 21 19 16 14
15 16 17 17 15 16 18 18 17 18 18 19 20 23 23 21 17 13 20 19 19 18 18 18 20 16 13

GFSFLT2_con_lsi_093.txt.gz
Lid_Strength_Index
7 7 7 7 7 6 6 7 6 5 5 4 4 4 4 4 4 4 4 4 3 3 2 1 1 -0 -0
8 8 7 6 6 7 7 7 7 6 5 5 5 4 4 5 6 6 6 6 5 4 3 2 2 1 0
8 7 7 8 8 8 8 9 9 7 6 5 5 5 4 6 7 7 7 7 6 5 4 4 3 2 1
7 8 8 8 8 9 9 9 9 9 7 7 6 6 5 7 8 8 8 7 7 7 5 5 4 3 3
9 8 9 10 10 10 10 10 10 10 11 10 9 9 7 8 9 9 9 8 8 8 7 6 5 5 4
9 9 9 9 11 11 11 12 12 11 12 11 10 11 10 11 9 9 9 9 8 8 8 7 6 6 5
8 8 9 10 10 11 11 12 11 12 12 12 12 12 13 11 9 9 9 9 8 8 9 8 7 7 7
9 9 10 10 10 10 10 11 13 12 12 13 14 15 15 15 10 10 10 9 9 8 8 8 7 7 7
9 8 7 7 8 10 12 12 13 13 14 14 16 16 16 16 15 10 9 9 9 9 9 8 9 9 10
12 10 8 8 7 11 12 13 13 15 15 16 16 16 19 16 15 14 13 10 9 9 9 9 9 13 13
14 14 13 13 14 13 13 15 14 18 14 16 20 19 19 19 16 15 15 14 14 13 11 11 10 11 13
14 14 15 15 16 15 14 15 15 15 14 17 20 19 22 22 19 16 16 16 15 15 16 12 11 11 11
14 15 16 15 16 16 16 15 15 15 14 14 19 21 22 22 20 19 17 16 17 17 17 17 16 16 17
14 15 16 16 17 17 18 18 19 16 15 15 18 20 22 21 20 20 20 20 19 18 17 17 15 15 16
15 15 15 15 16 17 17 19 20 18 17 17 15 16 18 18 20 19 18 18 19 19 18 19 17 16 15
15 15 15 16 16 17 18 19 20 19 19 18 18 18 17 16 15 19 19 19 19 17 18 22 20 17 15
13 14 15 16 15 16 16 17 19 19 19 19 20 20 20 19 16 13 19 20 19 18 18 19 21 18 14

GFSFLT2_con_lsi_096.txt.gz
Lid_Strength_Index
9 9 8 7 7 7 7 7 6 4 4 4 5 5 4 5 5 5 5 4 4 3 3 2 2 1 -0
8 8 8 8 8 7 7 7 8 6 5 5 5 5 5 5 6 6 6 6 6 5 4 3 2 2 1
9 9 9 8 8 7 8 9 9 7 6 5 5 5 5 6 7 7 7 7 6 6 5 4 4 3 2
9 9 9 9 8 9 9 9 9 9 8 7 7 5 5 6 8 8 8 8 7 7 6 5 5 4 3
10 10 10 10 9 9 9 10 9 10 12 11 9 9 8 7 9 8 9 8 8 8 8 6 5 5 4
10 10 9 11 11 10 11 12 12 12 13 13 11 11 10 10 9 9 9 9 8 8 8 7 7 6 6
9 11 11 10 11 11 13 13 12 13 12 12 12 12 12 11 9 9 9 9 9 8 8 8 7 6 6
7 9 10 9 8 10 11 12 13 12 12 13 15 13 14 14 11 9 9 9 9 8 8 7 7 7 7
8 8 7 7 8 11 13 12 14 14 13 13 16 16 16 16 14 10 9 9 9 9 9 9 9 9 10
11 10 7 7 7 10 12 12 13 14 14 15 16 16 18 16 15 14 13 9 9 9 9 9 9 14 14
14 13 13 12 11 12 12 13 15 16 14 16 19 17 18 18 15 14 14 14 14 13 10 10 10 12 14
14 14 14 14 15 14 14 14 14 13 13 16 18 17 20 21 18 16 16 16 16 15 16 13 11 11 10
14 14 14 14 15 16 16 15 15 15 14 17 18 20 20 21 20 19 17 16 17 18 17 17 17 17 17
14 15 15 16 16 16 17 17 17 16 15 14 19 18 21 21 21 21 20 20 19 18 17 17 15 15 16
14 15 14 15 16 17 17 18 20 18 16 16 15 16 19 19 21 19 18 19 19 19 18 19 17 16 15
13 14 15 15 15 17 18 18 20 19 19 17 17 19 18 17 15 19 19 18 19 17 18 22 20 17 15
13 14 14 15 15 16 16 17 19 18 20 18 19 21 22 21 17 13 18 19 19 19 18 19 21 18 15

GFSFLT2_con_lsi_099.txt.gz
Lid_Strength_Index
9 9 9 8 9 9 9 9 6 4 4 5 5 5 5 5 5 5 6 6 5 5 4 3 2 2 2
10 9 9 9 9 10 9 8 8 6 6 5 5 5 4 5 6 7 7 7 7 6 5 4 3 3 2
10 10 10 9 10 9 9 10 10 8 6 5 5 5 5 5 6 8 8 8 8 7 6 5 4 3 3
10 10 10 10 9 10 11 10 11 10 7 7 6 6 5 5 7 9 9 8 8 8 8 6 5 4 3
10 11 11 11 10 10 10 11 11 10 10 9 9 9 9 6 8 9 9 9 9 8 8 7 6 5 5
10 10 11 11 11 11 11 12 12 10 11 11 11 12 11 10 8 9 9 9 9 8 8 8 7 6 5
9 9 10 11 11 13 13 13 12 12 12 13 13 13 12 10 8 9 9 9 9 8 8 8 6 6 5
7 8 8 9 9 11 11 13 14 13 12 13 14 14 15 14 10 9 9 9 9 8 8 8 8 7 7
7 8 7 8 9 11 13 13 15 15 13 12 16 16 16 16 15 10 9 9 9 8 9 9 9 9 11
9 8 7 8 8 10 12 12 14 14 13 13 16 16 17 16 15 14 13 9 9 8 9 9 10 14 14
11 12 10 10 10 13 12 11 13 12 13 15 18 17 18 19 16 14 14 13 13 11 9 10 10 12 15
12 12 12 11 11 13 13 14 13 13 13 15 18 18 20 21 18 16 16 15 15 15 15 12 10 10 10
12 13 13 14 14 15 15 14 15 15 14 16 18 21 19 21 20 19 16 16 16 17 18 17 17 17 17
12 13 14 16 16 16 15 16 17 16 14 16 20 18 22 22 20 20 20 19 18 19 17 17 15 15 15
12 13 14 15 15 16 17 18 18 16 16 16 16 17 19 19 20 19 18 19 19 19 18 18 17 16 15
11 12 13 14 15 16 17 18 18 18 17 16 16 19 18 17 15 17 19 18 19 18 18 20 19 17 15
12 12 13 13 14 15 16 16 18 18 20 18 20 20 22 21 17 13 18 19 19 18 18 17 19 18 15

GFSFLT2_con_lsi_102.txt.gz
Lid_Strength_Index
8 8 8 7 8 8 7 8 6 5 6 6 6 6 5 4 5 5 6 6 6 5 5 4 4 3 3
10 9 9 7 8 8 9 9 9 6 6 6 6 5 5 5 6 6 7 7 7 7 6 6 5 4 3
10 10 10 9 9 9 9 10 10 8 7 7 6 5 5 6 6 7 7 8 8 8 8 7 6 5 4
10 10 10 9 9 10 11 11 12 11 9 8 6 6 6 5 6 7 8 8 9 8 8 8 7 6 5
10 11 10 10 10 10 10 11 11 12 12 11 9 9 8 6 6 8 8 9 9 9 9 9 8 7 6
8 9 10 9 9 10 12 13 13 11 12 12 10 11 11 10 7 7 8 9 9 10 10 9 8 7 6
7 7 9 9 9 11 13 13 13 14 13 13 13 12 12 10 7 7 8 9 10 10 9 9 8 7 7
5 5 6 8 9 9 10 12 14 13 13 14 16 15 14 13 7 8 9 9 9 9 8 9 9 8 8
5 6 7 7 8 10 12 12 15 15 14 14 17 17 16 16 15 8 8 9 9 8 9 10 9 10 11
8 6 6 7 8 9 11 12 15 15 15 15 17 17 18 16 15 14 13 9 9 9 10 10 10 13 13
9 9 10 9 9 11 10 10 14 14 14 16 17 17 17 17 15 14 14 13 13 11 10 10 9 12 14
10 11 10 10 11 12 12 14 14 13 13 16 18 18 18 19 17 16 16 16 15 15 15 12 10 10 10
10 10 11 11 12 13 14 14 14 13 12 14 16 18 17 18 19 19 18 17 17 17 17 16 16 16 16
9 11 12 13 13 13 14 14 15 16 15 16 17 18 22 21 21 20 21 19 19 19 17 17 15 14 15
11 12 12 12 13 13 13 14 15 16 16 16 17 18 19 19 21 20 19 20 19 19 17 18 16 15 15
9 10 11 12 12 13 14 13 15 15 16 16 17 20 18 17 15 19 20 19 19 17 17 20 19 17 15
9 10 11 12 12 13 13 14 15 15 15 16 17 20 22 20 18 14 20 20 18 18 17 18 19 18 15

GFSFLT2_con_lsi_105.txt.gz
Lid_Strength_Index
7 7 6 6 6 5 5 4 4 4 4 5 5 5 5 5 5 6 6 5 4 4 5 5 4 4 3
8 8 7 6 7 7 8 7 6 5 5 5 6 5 6 6 6 7 7 6 6 7 7 6 5 5 4
10 9 9 7 8 8 8 9 8 6 5 6 6 6 6 6 7 8 7 7 8 8 7 7 7 6 5
8 9 9 9 8 9 11 10 10 9 7 6 6 6 6 6 7 8 8 8 8 8 7 8 8 7 6
9 10 10 10 9 9 9 10 11 11 10 8 7 7 6 6 7 8 9 9 9 9 8 8 8 8 7
7 8 8 8 8 9 10 12 13 11 11 10 8 8 8 8 7 8 8 9 9 9 8 9 8 7 7
5 6 7 7 8 10 10 10 9 11 10 12 11 11 10 10 7 8 8 9 9 9 8 9 9 8 8
4 3 4 6 7 7 8 9 13 12 10 13 13 12 12 11 8 8 9 9 10 9 8 9 9 8 9
5 4 4 5 6 8 11 12 15 15 13 14 15 15 14 13 11 8 8 9 10 9 9 9 9 9 9
6 5 5 5 5 6 9 10 14 15 14 14 16 15 15 15 13 11 9 9 10 9 8 9 9 11 11
7 7 7 6 6 6 7 7 11 12 13 13 15 16 15 17 16 14 12 11 10 9 9 9 10 11 11
9 9 8 8 7 8 7 8 8 12 11 13 15 14 16 17 17 15 14 12 11 11 10 11 10 11 11
8 8 7 8 11 11 12 13 12 11 10 13 13 14 14 15 16 15 14 12 12 11 12 12 11 12 11
7 7 9 9 10 12 12 12 13 15 14 14 13 13 14 13 13 13 12 13 12 12 12 12 13 12 12
7 8 9 9 11 11 12 12 13 15 16 16 15 14 12 14 14 13 14 15 13 13 13 13 13 12 12
6 7 8 9 9 11 11 12 13 14 15 16 15 14 14 14 13 15 15 15 14 13 13 13 13 12 12
7 7 8 9 10 11 11 11 13 13 14 15 14 13 14 15 15 13 14 14 14 14 13 13 13 12 12

GFSFLT2_con_lsi_108.txt.gz
Lid_Strength_Index
2 3 4 4 5 4 3 3 3 3 2 3 4 4 3 3 3 3 4 5 5 5 5 5 3 3 4
3 5 6 5 4 5 5 4 3 4 3 4 4 4 4 4 4 5 5 6 6 6 7 5 4 5 5
4 8 7 7 7 7 7 7 6 5 4 5 5 5 5 5 5 6 6 7 7 8 7 7 7 6 6
6 9 9 9 7 9 10 9 9 7 6 6 5 6 6 6 6 7 7 8 8 9 9 9 9 8 7
7 9 9 9 9 8 8 9 10 10 8 7 7 7 6 6 7 7 8 8 8 9 9 9 9 9 7
6 6 7 7 7 8 9 11 12 10 9 9 8 8 7 6 6 7 8 8 9 9 9 9 9 9 7
6 5 5 6 6 8 8 9 8 10 9 10 9 9 8 7 7 7 8 8 8 9 9 9 10 8 8
5 5 4 2 4 6 6 8 11 11 8 10 11 10 10 9 7 7 8 8 9 9 10 10 9 10 9
7 6 6 5 4 4 7 10 14 14 10 13 15 15 13 12 9 8 8 8 9 9 10 10 10 10 9
8 7 6 5 5 4 6 8 9 14 12 11 15 15 16 15 12 10 9 8 9 10 9 9 10 10 10
9 8 8 7 6 5 4 6 8 10 11 11 15 15 15 17 15 12 10 10 10 10 9 9 10 10 11
11 11 10 9 8 6 5 6 5 6 10 9 13 12 16 17 17 15 13 11 11 11 10 10 10 10 10
13 12 10 8 9 11 11 11 11 11 9 8 11 11 11 13 15 15 15 14 12 11 11 11 11 11 11
11 10 8 9 9 9 10 10 10 12 13 12 12 10 12 13 13 14 13 14 13 11 12 11 10 10 10
8 8 7 7 8 8 8 9 11 12 13 14 14 12 12 13 13 13 13 13 13 12 11 12 11 11 11
7 7 7 7 7 8 8 9 9 12 14 15 15 14 14 14 12 12 12 13 12 11 11 12 12 11 11
6 6 6 7 7 8 9 9 10 10 12 14 13 13 14 15 15 11 12 12 13 13 11 11 12 12 12

GFSFLT2_con_lsi_111.txt.gz
Lid_Strength_Index
3 3 4 4 4 4 3 3 3 3 2 3 3 3 2 2 2 2 2 3 3 3 3 4 4 5 5
3 5 5 5 4 4 4 4 3 3 4 3 3 3 3 3 3 3 4 4 4 4 4 4 5 6 6
5 5 5 6 6 6 5 5 5 5 4 4 3 3 3 4 4 4 5 5 5 6 6 6 6 6 6
7 7 8 8 7 8 9 9 7 7 5 4 4 4 4 4 5 6 7 6 6 7 7 8 8 8 8
9 8 8 8 8 7 7 8 9 9 7 7 6 6 5 5 6 7 7 7 7 8 8 8 9 9 9
8 8 6 7 7 8 8 11 11 9 8 7 6 7 7 6 7 7 7 8 8 8 8 8 9 9 9
9 8 7 6 5 7 8 9 9 9 7 8 8 8 7 7 7 7 7 8 8 8 9 9 9 10 9
10 9 8 7 7 7 6 6 9 10 7 9 9 8 8 7 6 7 7 7 8 8 9 9 10 9 9
10 9 9 7 7 7 8 8 9 11 9 10 13 12 11 11 7 7 7 8 8 8 9 9 10 9 10
13 12 10 10 8 8 8 9 8 12 10 10 14 14 14 14 12 8 8 8 8 8 9 9 10 12 13
14 13 12 11 10 9 8 9 9 9 10 8 12 13 14 16 14 10 9 9 10 10 9 10 10 11 14
14 14 13 12 12 10 9 9 7 8 9 7 12 9 12 16 16 13 10 10 11 12 12 10 10 10 11
15 14 14 13 12 11 11 12 12 12 10 8 9 10 9 13 16 14 13 12 12 12 12 12 13 14 14
14 14 13 14 13 12 11 10 12 11 13 10 9 10 10 11 12 14 11 15 13 12 12 13 13 13 14
14 14 14 14 13 12 11 11 11 11 13 13 11 10 10 11 12 12 12 13 12 13 13 14 14 14 14
11 11 11 11 11 10 9 9 10 9 10 12 11 11 11 12 11 12 12 13 12 13 13 14 15 14 14
9 9 8 8 7 8 7 8 8 8 8 9 9 9 11 13 14 10 12 12 13 13 13 14 15 15 14

GFSFLT2_con_lsi_114.txt.gz
Lid_Strength_Index
4 2 3 3 3 2 2 2 3 3 2 2 2 2 2 2 2 1 1 0 0 1 1 2 3 3 3
7 6 3 3 3 3 3 3 3 4 3 3 3 3 3 3 3 2 2 2 2 2 2 3 3 4 4
9 7 6 6 5 5 5 4 4 5 3 3 3 3 3 3 3 3 3 3 4 4 4 4 4 4 5
10 9 8 8 7 8 7 8 6 7 5 4 4 4 4 3 4 4 5 5 5 5 5 5 6 6 6
12 11 10 9 9 8 8 7 9 8 7 5 5 4 4 4 4 6 6 6 6 6 6 6 7 7 8
12 12 10 9 8 8 8 9 10 8 8 7 6 6 5 4 4 5 6 6 6 6 7 7 8 9 9
12 12 11 10 9 10 9 9 8 7 8 8 8 8 6 6 5 6 6 6 7 7 8 8 8 9 9
13 13 12 11 10 10 9 9 8 8 7 9 9 8 8 7 5 6 6 7 7 7 8 8 9 9 9
12 11 11 11 11 12 12 12 11 11 9 9 11 10 11 9 7 6 6 7 7 7 7 8 9 9 10
15 14 13 14 12 12 12 13 13 12 11 10 12 12 13 12 11 7 7 7 7 7 7 8 9 12 13
15 15 15 14 14 13 13 13 13 13 10 11 13 13 13 14 13 10 7 8 8 8 7 8 9 11 13
17 16 16 15 15 14 13 14 12 12 10 10 13 11 13 14 14 13 9 8 9 10 9 9 9 10 11
16 16 16 16 15 15 13 13 13 12 11 11 11 11 10 10 12 13 11 10 9 10 11 11 11 11 13
16 15 16 17 16 14 14 13 14 13 12 12 11 10 11 10 10 13 10 12 10 11 11 11 11 12 13
15 15 14 15 15 14 14 14 14 14 13 13 13 11 10 11 11 11 11 11 10 11 12 13 13 13 13
13 14 14 14 14 13 12 13 14 13 12 11 12 13 14 13 10 11 10 10 10 10 11 13 14 13 13
11 11 12 12 11 12 11 11 11 11 11 10 11 11 13 13 13 10 10 11 10 12 12 12 14 14 14

GFSFLT2_con_lsi_117.txt.gz
Lid_Strength_Index
6 5 5 5 4 2 1 1 1 3 1 2 2 2 3 2 2 1 1 0 -0 -0 -1 -0 0 1 2
8 7 7 5 5 5 3 2 2 3 3 3 3 3 3 3 3 3 2 2 1 0 0 0 1 2 2
11 9 8 7 7 6 5 5 4 5 3 3 3 3 3 3 3 3 4 3 3 2 2 2 2 2 3
12 12 11 10 8 8 9 7 7 6 6 5 4 4 3 3 4 4 5 4 3 3 3 3 4 4 3
14 13 13 12 12 11 11 11 9 8 8 7 6 5 5 4 5 5 5 5 4 3 4 4 5 5 5
14 15 14 13 13 13 13 13 13 9 9 9 7 7 5 5 5 5 5 5 5 4 5 5 6 6 6
14 14 14 13 12 13 14 14 13 11 11 11 8 7 5 5 5 5 5 4 5 5 6 6 7 7 7
14 13 13 12 12 13 13 12 12 11 10 11 8 7 7 6 5 5 5 5 6 6 6 7 8 8 8
11 11 11 11 12 13 14 14 15 13 12 10 10 10 10 9 7 5 5 6 6 6 7 7 8 8 9
15 15 14 14 12 14 14 15 15 15 13 12 12 12 11 11 10 6 5 6 6 6 7 7 8 10 11
15 15 15 15 14 14 14 15 16 16 14 13 13 13 14 12 12 10 7 6 6 7 7 7 8 10 12
17 17 16 16 16 16 16 15 15 15 14 14 15 14 14 13 13 13 10 7 7 8 8 7 8 9 10
16 16 16 16 16 17 16 15 15 14 13 13 13 13 13 14 13 14 12 11 8 8 8 9 10 10 12
16 15 15 18 17 17 16 15 15 15 14 13 13 13 14 13 12 12 12 12 10 9 9 9 9 10 11
15 15 14 15 15 16 16 16 16 15 15 14 13 12 12 13 13 12 11 11 10 10 10 11 10 10 11
14 15 15 14 15 15 15 16 16 16 15 13 13 13 13 13 11 12 11 11 11 10 10 11 12 11 11
16 15 13 13 13 13 14 14 14 14 14 12 12 13 15 16 13 10 12 11 11 11 11 11 12 12 12